STARLINK-3796 (52372 NORAD) Tracking and Keplerian Element Data

This shows tracking and keplerian element data for the satellite.

Feedback or suggestion? Click here.




ElementValue
Catalog52372
NameSTARLINK-3796
Epoch Orbit130
Epoch Day167.08334491
Epoch Year2022
RAAN202.6625
Inclination53.2136
Eccentricity0.0003027
Argument of Perigee13.1106
Mean Anonmoly294.6931
Mean Motion15.732387
Decay Rate-0.00013707
L11 52372U 22045AT 22167.08334491 -.00013707 00000+0 -93199-4 0 9996
L22 52372 53.2136 202.6625 0003027 13.1106 294.6931 15.73238700 1302

Live tracking and technical data element details for STARLINK-3796 (NORAD 52372). STARLINK-3796 can be tracked NOW for your location showing map with azimuth and elevation plus other details from your city location.

Track the satellite on the map from your city or location and see movement details for azimuth, elevation, latitude, longitude, range, height, and movement on the map or in text.







IsCatalogInMostPopularTable: catalog: 52372, numindb: 1
Update: records affected: 1



GetName: 52372 STARLINK-3796

Hit Count: updated at: Sat, 25 Jun 2022 05:17:47 GMT